Location: Góry Miechowskie
(50.3599°N, 20.1803°E)
Time: 08:19:41
(UTC+00:00)

Cosmos 1461 - Pass Details

Date: 19 September 2024
Orbit: 489 x 565 km, 65.0° (Epoch: 12 October)

Event Time Altitude Azimuth Distance (km) Brightness Sun altitude
Exits shadow 00:42:05 12° 356° (N) 1,588 5.6 -31.4°
Drops below altitude 10° 00:42:52 10° 7° (N) 1,697 6.0 -31.3°
Sets 00:46:10 0° 38° (NE) 2,593 7.4 -31.0°
